Simultaneous Nadir Overpasses (SNOs) Predictions

Prediction of SNOs between GOES-15 and LANDSAT-8 Satellite Orbit:

Table of predicted SNOs for the next 14.0 days since TLE Epoch: 6/6/2025
Index Date Time (GOES-15) GOES-15 Lat,Lon LANDSAT-8 Lat,Lon Distance(km) Time Diff (sec)
1 06/07/2025 06:16:59 -0.15, 61.38 0.36, 59.10 259.54 80
2 06/09/2025 06:02:11 -0.16, 61.36 -0.27, 62.05 77.51 80
3 06/11/2025 05:50:02 -0.16, 61.35 -0.92, 65.00 413.82 80
4 06/11/2025 18:14:06 0.13, 61.38 -0.18, 59.80 178.43 80
5 06/13/2025 17:59:16 0.15, 61.37 0.42, 62.76 157.30 80
6 06/14/2025 06:23:12 -0.12, 61.35 0.67, 57.60 425.47 80
7 06/15/2025 17:47:08 0.16, 61.37 1.09, 65.71 492.71 80
8 06/16/2025 06:11:02 -0.13, 61.35 0.06, 60.56 90.15 80
9 06/18/2025 05:56:13 -0.14, 61.35 -0.62, 63.50 245.07 80
10 06/18/2025 18:20:17 0.11, 61.38 -0.52, 58.32 347.75 80
11 06/20/2025 18:05:27 0.12, 61.39 0.11, 61.27 13.09 80
